This demonstration page uses our WeatherBlox Daily Observations layout. Learn more.

Left ArrowRight Arrow

30.00354, -91.81873

Hourly Observations for August 20, 2022

Temp ( °F °C ) Dew Point ( °F °C ) Humidity (%) Winds ( mph kmh ) Pressure ( in mb ) Visibility ( mi km ) Precip ( " mm )
12:53 am 00:53 Clear 75 23.9 73 22.8 94 94 Calm 29.99 1016 10 16 0.00 0.00
1:53 am 01:53 Clear 75 23.9 73 22.8 94 94 Calm 29.99 1016 10 16 0.00 0.00
2:53 am 02:53 Clear 76 24.4 74 23.3 94 94 Calm 29.99 1016 10 16 0.00 0.00
3:53 am 03:53 Mostly Cloudy 77 25 74 23.3 90 90 ENE 3 6 29.99 1016 10 16 0.00 0.00
4:03 am 04:03 Mostly Cloudy 76 24.4 74 23.3 94 94 WNW 3 6 30.00 1016 10 16 0.00 0.00
4:13 am 04:13 Mostly Cloudy 76 24.4 74 23.3 94 94 Calm 30.00 1016 10 16 0.00 0.00
4:49 am 04:49 Mostly Clear with Nearby Thunderstorms 77 25 73 23 89 89 ENE 3 6 30.01 1016 10 16 0.00 0.00
4:53 am 04:53 Partly Cloudy with Nearby Thunderstorms 77 25 74 23.3 90 90 E 3 6 30.00 1016 10 16 0.00 0.00
5:16 am 05:16 Mostly Cloudy with Heavy Rain 75 23.9 72 22.2 90 90 SSW 13 20 30.03 1017 3 4 0.11 2.79
5:21 am 05:21 Mostly Cloudy with Strong Thunderstorms 74 23.3 70 21.1 87 87 SW 8 13 30.02 1017 2 2 0.19 4.83
5:29 am 05:29 Cloudy with Thunderstorms 76 24.4 70 21.1 82 82 W 6 9 30.02 1017 3 5 0.20 5.08
5:53 am 05:53 Mostly Cloudy with Nearby Thunderstorms 74 23.3 71 21.7 91 91 ENE 3 6 30.02 1017 10 16 0.21 5.33
6:03 am 06:03 Mostly Clear 74 23.3 71 21.7 91 91 ENE 5 7 30.02 1017 10 16 0.01 0.13
6:53 am 06:53 Sunny 75 23.9 72 22.2 90 90 Calm 30.03 1017 10 16 0.01 0.13
7:53 am 07:53 Sunny 77 25 73 22.8 88 88 ENE 3 6 30.06 1018 10 16 0.00 0.00
8:53 am 08:53 Sunny 81 27.2 74 23.3 79 79 E 5 7 30.06 1018 10 16 0.00 0.00
9:03 am 09:03 Sunny with Nearby Thunderstorms 81 27.2 75 23.9 82 82 SE 7 11 30.08 1019 10 16 0.00 0.00
9:31 am 09:31 Partly Cloudy with Light Rain 80 26.7 73 22.8 79 79 SSW 13 20 30.09 1019 10 16 0.01 0.13
9:53 am 09:53 Cloudy with Rain 77 25 71 21.7 82 82 Calm 30.08 1019 6 10 0.02 0.51
10:32 am 10:32 Partly Cloudy with Nearby Thunderstorms 82 27.8 73 22.8 74 74 SSE 3 6 30.10 1019 10 16 0.01 0.25
10:53 am 10:53 Mostly Cloudy with Heavy Rain 78 25.6 74 23.3 87 87 S 12 19 30.12 1020 2 2 0.10 2.54
11:02 am 11:02 Mostly Cloudy with Light Rain 77 25 72 22.2 84 84 Calm 30.12 1020 3 5 0.02 0.51
11:53 am 11:53 Mostly Cloudy with Light Rain 76 24.4 73 22.8 91 91 Calm 30.10 1019 10 16 0.09 2.29
12:53 pm 12:53 Mostly Sunny 78 25.6 74 23.3 87 87 Calm 30.07 1018 10 16 0.01 0.25
1:53 pm 13:53 Sunny 81 27.2 76 24.4 85 85 E 6 9 30.07 1018 10 16 0.00 0.00
2:53 pm 14:53 Sunny 83 28.3 75 23.9 77 77 ESE 6 9 30.06 1018 10 16 0.00 0.00
3:53 pm 15:53 Sunny 85 29.4 76 24.4 75 75 E 5 7 30.04 1017 10 16 0.00 0.00
4:53 pm 16:53 Partly Cloudy 84 28.9 76 24.4 77 77 ESE 8 13 30.03 1017 10 16 0.00 0.00
5:10 pm 17:10 Partly Cloudy with Nearby Thunderstorms 84 28.9 76 24.4 77 77 E 7 11 30.03 1017 10 16 0.00 0.00
5:28 pm 17:28 Mostly Sunny 83 28.3 76 24.4 79 79 ESE 6 9 30.04 1017 10 16 0.00 0.00
5:38 pm 17:38 Partly Cloudy with Nearby Thunderstorms 83 28.3 75 23.9 77 77 Calm 30.05 1018 10 16 0.00 0.00
5:53 pm 17:53 Partly Cloudy with Nearby Thunderstorms 82 27.8 76 24.4 82 82 SSE 5 7 30.04 1017 10 16 0.01 0.13
6:26 pm 18:26 Mostly Cloudy with Thunderstorms 79 26.1 76 24.4 90 90 WNW 7 11 30.05 1018 10 16 0.01 0.13
6:44 pm 18:44 Cloudy with Nearby Thunderstorms 77 25 74 23.3 90 90 W 6 9 30.06 1018 3 4 0.04 1.02
6:53 pm 18:53 Cloudy with Nearby Thunderstorms 76 24.4 74 23.3 94 94 NNW 5 7 30.04 1017 1 1 0.16 4.06
7:00 pm 19:00 Mostly Cloudy with Nearby Thunderstorms 77 25 74 23.3 90 90 Calm 30.06 1018 2 3 0.01 0.13
7:07 pm 19:07 Mostly Cloudy with Nearby Thunderstorms 77 25 75 23.9 94 94 Calm 30.06 1018 8 13 0.01 0.25
7:17 pm 19:17 Partly Cloudy with Light Rain 77 25 74 23.3 90 90 Calm 30.05 1018 9 14 0.01 0.25
7:53 pm 19:53 Partly Cloudy with Light Rain 77 25 75 23.9 94 94 E 3 6 30.06 1018 10 16 0.02 0.51
8:53 pm 20:53 Clear 78 25.6 76 24.4 93 93 E 3 6 30.07 1018 10 16 0.01 0.13
9:53 pm 21:53 Clear 77 25 75 23.9 94 94 SSE 6 9 30.08 1019 10 16 0.00 0.00
10:53 pm 22:53 Clear 77 25 74 23.3 90 90 ESE 3 6 30.05 1018 10 16 0.00 0.00
11:53 pm 23:53 Clear 76 24.4 73 22.8 91 91 SE 5 7 30.04 1017 10 16 0.00 0.00

Powered by AerisWeather